This is the latest recevied weather packets stored in our database for station/object K6CQU-13. If no packets are shown the sender has not sent any weather packets the latest 10 day(s).
| Time | Temp. | Humidity | Pressure | Rain* | Wind** | Luminosity | Snow |
|---|---|---|---|---|---|---|---|
| 1787884817 | 28.33° C | 44% | 1012 hPa | 0 mm | - | 5 W/m² | - |
| 1787884518 | 28.33° C | 49% | 1011.9 hPa | 0 mm | - | 6 W/m² | - |
| 1787884218 | 28.89° C | 48% | 1011.9 hPa | 0 mm | - | 8 W/m² | - |
| 1787883917 | 28.89° C | 48% | 1012 hPa | 0 mm | - | 12 W/m² | - |
| 1787883617 | 28.89° C | 46% | 1012 hPa | 0 mm | - | 16 W/m² | - |
| 1787883317 | 28.89° C | 47% | 1012.1 hPa | 0 mm | - | 21 W/m² | - |
| 1787883018 | 29.44° C | 46% | 1012.1 hPa | 0 mm | - | 26 W/m² | - |
| 1787882717 | 29.44° C | 47% | 1012.1 hPa | 0 mm | - | 30 W/m² | - |
| 1787882417 | 29.44° C | 46% | 1012.2 hPa | 0 mm | - | 35 W/m² | - |
| 1787882117 | 30° C | 45% | 1012.3 hPa | 0 mm | - | 44 W/m² | - |
| 1787881817 | 30° C | 44% | 1012.3 hPa | 0 mm | - | 54 W/m² | - |
| 1787881517 | 30.56° C | 43% | 1012.4 hPa | 0 mm | - | 64 W/m² | - |
| 1787881217 | 31.11° C | 42% | 1012.4 hPa | 0 mm | - | 72 W/m² | - |
| 1787880918 | 31.11° C | 42% | 1012.4 hPa | 0 mm | - | 80 W/m² | - |
| 1787880617 | 31.11° C | 40% | 1012.5 hPa | 0 mm | - | 93 W/m² | - |
| 1787880318 | 31.67° C | 39% | 1012.5 hPa | 0 mm | - | 105 W/m² | - |
| 1787880017 | 31.67° C | 38% | 1012.5 hPa | 0 mm | - | 111 W/m² | - |
| 1787879717 | 31.67° C | 37% | 1012.5 hPa | 0 mm | - | 118 W/m² | - |
| 1787879417 | 31.67° C | 39% | 1012.6 hPa | 0 mm | - | 129 W/m² | - |
| 1787879117 | 32.22° C | 37% | 1012.6 hPa | 0 mm | - | 123 W/m² | - |
| 1787878817 | 32.22° C | 36% | 1012.6 hPa | 0 mm | - | 118 W/m² | - |
| 1787878517 | 32.22° C | 37% | 1012.6 hPa | 0 mm | - | 99 W/m² | - |
| 1787878219 | 32.22° C | 40% | 1012.6 hPa | 0 mm | - | 92 W/m² | - |
| 1787877917 | 32.22° C | 40% | 1012.6 hPa | 0 mm | - | 91 W/m² | - |
| 1787877617 | 32.22° C | 40% | 1012.6 hPa | 0 mm | - | 97 W/m² | - |
* Rain latest hour (hover to see other rain measurements)
** Current wind speed in m/s (hover to see current wind gust speed)